Regional Weather Roundup
Issued by NWS

Home | Current Version | Previous Version | Text Only | Print | Product List | Glossary Off
Versions: 1 2 3 4 5 6 7 8 9 10 11 12 13 14 15 16 17 18 19 20 21 22 23 24 25 26 27 28 29 30 31 32 33 34 35 36 37 38 39 40 41 42 43 44 45 46 47 48 49 50

000
ASUS43 KMKX 241359
RWRWI

WISCONSIN REGIONAL WEATHER ROUNDUP
NATIONAL WEATHER SERVICE MILWAUKEE/SULLIVAN WI
800 AM CST TUE JAN 24 2017

NOTE: "FAIR" INDICATES FEW OR NO CLOUDS BELOW 12,000 FEET WITH NO
SIGNIFICANT WEATHER AND/OR OBSTRUCTIONS TO VISIBILITY.

WIZ001-002-006>008-014>016-023>028-241500-
NORTHWEST WISCONSIN

CITY           SKY/WX    TMP DP  RH WIND       PRES   REMARKS
SUPERIOR ARPT  CLOUDY    32  28  86 NW5       29.89R WCI  27
ASHLAND        CLOUDY    33  31  92 W5        29.87R WCI  29
HAYWARD        CLOUDY    32  30  92 CALM      29.87R
SIREN          CLOUDY    31  31  98 CALM      29.89R
CUMBERLAND     RAIN      32  30  93 CALM      29.87R
RICE LAKE      CLOUDY    32  32  99 CALM      29.89R FOG
CHETEK         CLOUDY    32  32  99 CALM      29.88R FOG
LADYSMITH      CLOUDY    32  32  99 CALM      29.87S FOG
EAU CLAIRE     CLOUDY    31  30  96 SW3       29.88S FOG
MENOMONIE        N/A    N/A N/A N/A MISG        N/A
NEW RICHMOND   CLOUDY    31  29  95 W3        29.89S
OSCEOLA        CLOUDY    32  27  82 CALM      29.92R
$$

WIZ003>005-009-010-017-018-241500-
NORTH CENTRAL WISCONSIN

CITY           SKY/WX    TMP DP  RH WIND       PRES   REMARKS
MANITOWISH WTR CLOUDY    32  32 100 CALM      29.82S
ARBOR VITAE    CLOUDY    34  33  94 NW3       29.82R
WOODRUFF       CLOUDY    34  33  94 NW3       29.82R
RHINELANDER    CLOUDY    34  32  92 NW6       29.82S WCI  29
EAGLE RIVER    CLOUDY    32  32 100 NW6       29.81R FOG     WCI  26
LAND O LAKES   CLOUDY    33  33 100 NW5       29.82R WCI  28
PHILLIPS       CLOUDY    31  31 100 CALM      29.84R
TOMAHAWK       CLOUDY    32  31  97 CALM      29.83S
MEDFORD        CLOUDY    31  30  97 CALM      29.84R
MERRILL        CLOUDY    33  32  98 NW5         N/A  WCI  28
$$

WIZ029-030-035-036-043>047-241500-
CENTRAL WISCONSIN

CITY           SKY/WX    TMP DP  RH WIND       PRES   REMARKS
WAUSAU         CLOUDY    33  31  92 W7        29.84R WCI  27
MOSINEE        CLOUDY    32  32 100 W3        29.86R
MARSHFIELD     CLOUDY    32  31  96 W5        29.85R FOG     WCI  27
STEVENS POINT  CLOUDY    32  32  99 W5        29.86R WCI  27
WAUPACA        CLOUDY    36  35  95 CALM      29.86R
WAUTOMA        CLOUDY    34  33  96 W3        29.87R
WISC RAPIDS    CLOUDY    33  33 100 W3        29.88R
CAMP DOUGLAS   NOT AVBL
$$

WIZ011>013-019>022-031-037>040-048>050-241500-
NORTHEAST WISCONSIN

CITY           SKY/WX    TMP DP  RH WIND       PRES   REMARKS
ANTIGO         CLOUDY    32  32 100 W7        29.82R WCI  26
SHAWANO        CLOUDY    37  34  91 W5        29.84S WCI  33
OCONTO         CLOUDY    32  32  99 CALM      29.83S
STURGEON BAY   FOG       34  34 100 CALM      29.83S VSB 1/2
GREEN BAY      CLOUDY    37  35  92 W9        29.85R WCI  30
MANITOWOC      NOT AVBL
APPLETON       CLOUDY    34  34 100 NW7       29.83R FOG     WCI  28
CLINTONVILLE   CLOUDY    34  34 100 NW3       29.85R
OSHKOSH        CLOUDY    35  33  92 W7        29.85R FOG     WCI  29
$$

WIZ032>034-041-042-053>061-241500-
SOUTHWEST WISCONSIN

CITY           SKY/WX    TMP DP  RH WIND       PRES   REMARKS
LA CROSSE      CLOUDY    35  31  85 CALM      29.89R
SPARTA         CLOUDY    31  31 100 CALM      29.89S FOG
VIROQUA        CLOUDY    32  32 100 CALM      29.86S
BOSCOBEL       CLOUDY    34  31  88 CALM      29.89S
PRAIRIE DU CHI CLOUDY    33  31  93 CALM      29.89R
PLATTEVILLE    CLOUDY    33  33 100 CALM      29.88S
$$

WIZ056-057-062-063-064-067-068-241500-
SOUTH CENTRAL WISCONSIN

CITY           SKY/WX    TMP DP  RH WIND       PRES   REMARKS
REEDSBURG      CLOUDY    33  33 100 CALM      29.87S
BARABOO/DELLS  CLOUDY    33  32  96 W3        29.87R FOG
LONE ROCK      NOT AVBL
MINERAL POINT  CLOUDY    34  32  93 CALM      29.87R
MADISON        CLOUDY    34  31  88 NW6       29.89R WCI  29
MIDDLETON      CLOUDY    35  34  98 NW3       29.88R
WATERTOWN      CLOUDY    33  33 100 W5        29.86R WCI  29
MONROE         CLOUDY    32  32 100 NW7       29.88R WCI  26
JANESVILLE     CLOUDY    36  34  93 W6        29.89R WCI  31
$$

WIZ051-052-058>065-066-070>072-241500-
SOUTHEAST WISCONSIN

CITY           SKY/WX    TMP DP  RH WIND       PRES   REMARKS
MILWAUKEE      CLOUDY    37  33  85 NW7       29.86R WCI  32
WAUKESHA       CLOUDY    34  32  93 W7        29.86R WCI  28
MILWAUKEE/TIMM CLOUDY    36  32  87 W7        29.86S WCI  30
RACINE         CLOUDY    36  32  85 W8        29.88R WCI  30
KENOSHA        CLOUDY    36  32  85 NW8       29.87R WCI  30
FOND DU LAC    CLOUDY    35  32  88 W7        29.86R FOG     WCI  29
SHEBOYGAN      CLOUDY    35  33  92 W6        29.85R FOG     WCI  30
WEST BEND      CLOUDY    34  34 100 W5        29.85R FOG     WCI  30
JUNEAU         CLOUDY    33  32  99 W3        29.87R FOG
$$

LSZ147-162-241500-
LAKE SUPERIOR

STATION/POSITION TIME  TEMP    WIND        PRES    WAVE
                       AIR SEA DIR/SP/G            HT/PER
                 (UTC) (F)     (DEG/KT/KT) (MB)    (FT/S)
DEVILS ISLAND    1300   34     220/ 11/ 13 1011.4R
PORT WING        1340   32     190/  3/  3 1011.9R
SAXON HARBOR     1340   33     240/  2/  4 1011.2R
$$

LMZ867-665-643>646-241500-
LAKE MICHIGAN

STATION/POSITION TIME  TEMP    WIND        PRES    WAVE
                       AIR SEA DIR/SP/G            HT/PER
                 (UTC) (F)     (DEG/KT/KT) (MB)    (FT/S)
NORTHPORT PIER   1340   35     280/  6/  8 1009.8R
SISTER BAY       1305   33        CALM       N/A
ALGOMA LAKESHORE 1254             CALM       N/A
KEWAUNEE LAKESHO 1330   35     300/  4/  6 1009.7R
SHEBOYGAN LAKESH 1300   36     290/  8/  9 1010.7R
PORT WASHINGTON  1340   36     290/  6/ 10 1011.9R
KENOSHA   LAKESH 1300   36     300/  5/  7 1011.2
$$

TC  - TEMPERATURE IN CELSIUS
VSB - VISIBILITY IN STATUTE MILES
WCI - WIND CHILL INDEX
HX  - HEAT INDEX




USA.gov is the U.S. government's official web portal to all federal, state and local government web resources and services.